| time (UTC) | temp C | wind direction | speed KPH | gust KPH | rain 1hr cm | rain 24hr cm | rain mn cm | humidity % | barometer mb |
| 20260505091104 | 7 | 55 | 0.0 | 3.2 | 0.00 | 0.00 | 0.00 | 78 | 1008.4 |
| 20260505090605 | 7 | 75 | 0.0 | 0.0 | 0.00 | 0.00 | 0.00 | 79 | 1008.4 |
| 20260505085105 | 8 | 75 | 0.0 | 0.0 | 0.00 | 0.00 | 0.00 | 78 | 1008.2 |
| 20260505084604 | 8 | 75 | 0.0 | 0.0 | 0.00 | 0.00 | 0.00 | 75 | 1008.3 |
| 20260505082605 | 9 | 75 | 0.0 | 0.0 | 0.00 | 0.00 | 0.00 | 76 | 1008.3 |
| 20260505082105 | 9 | 75 | 0.0 | 0.0 | 0.00 | 0.00 | 0.00 | 74 | 1008.2 |
| 20260505080105 | 11 | 75 | 0.0 | 1.6 | 0.00 | 0.00 | 0.00 | 66 | 1008.2 |
| 20260505074604 | 11 | 75 | 0.0 | 3.2 | 0.00 | 0.00 | 0.00 | 65 | 1008.0 |
| 20260505074105 | 12 | 75 | 0.0 | 3.2 | 0.00 | 0.00 | 0.00 | 64 | 1008.0 |
| 20260505073605 | 12 | 74 | 1.6 | 3.2 | 0.00 | 0.00 | 0.00 | 63 | 1008.0 |
| 20260505073104 | 11 | 286 | 0.0 | 1.6 | 0.00 | 0.00 | 0.00 | 65 | 1008.0 |
| 20260505072605 | 11 | 286 | 0.0 | 1.6 | 0.00 | 0.00 | 0.00 | 67 | 1007.9 |
| 20260505072104 | 11 | 286 | 0.0 | 1.6 | 0.00 | 0.00 | 0.00 | 67 | 1007.9 |
| 20260505065604 | 11 | 139 | 0.0 | 1.6 | 0.00 | 0.00 | 0.00 | 67 | 1007.9 |
| 20260505065105 | 12 | 131 | 0.0 | 1.6 | 0.00 | 0.00 | 0.00 | 66 | 1007.9 |
| 20260505064605 | 12 | 131 | 0.0 | 1.6 | 0.00 | 0.00 | 0.00 | 64 | 1007.9 |
| 20260505064104 | 13 | 153 | 0.0 | 3.2 | 0.00 | 0.00 | 0.00 | 63 | 1007.8 |
| 20260505061604 | 11 | 169 | 0.0 | 3.2 | 0.00 | 0.00 | 0.00 | 67 | 1007.8 |
| 20260505061105 | 11 | 36 | 0.0 | 3.2 | 0.00 | 0.00 | 0.00 | 69 | 1007.7 |
| 20260505054104 | 12 | 9 | 0.0 | 3.2 | 0.00 | 0.00 | 0.00 | 67 | 1007.7 |
| 20260505053605 | 11 | 11 | 0.0 | 1.6 | 0.00 | 0.00 | 0.00 | 70 | 1007.6 |
| 20260505053105 | 10 | 19 | 0.0 | 0.0 | 0.00 | 0.00 | 0.00 | 72 | 1007.7 |
| 20260505052604 | 10 | 19 | 0.0 | 0.0 | 0.00 | 0.00 | 0.00 | 72 | 1007.6 |
| 20260505052105 | 10 | 19 | 0.0 | 0.0 | 0.00 | 0.00 | 0.00 | 73 | 1007.6 |
| 20260505051104 | 10 | 19 | 0.0 | 0.0 | 0.00 | 0.00 | 0.00 | 74 | 1007.6 |
| 20260505050104 | 11 | 19 | 0.0 | 0.0 | 0.00 | 0.00 | 0.00 | 73 | 1007.5 |
| 20260505041105 | 13 | 19 | 0.0 | 0.0 | 0.00 | 0.00 | 0.00 | 65 | 1006.9 |
| 20260505040604 | 13 | 19 | 0.0 | 0.0 | 0.00 | 0.00 | 0.00 | 61 | 1006.9 |
| 20260505035605 | 14 | 19 | 0.0 | 0.0 | 0.00 | 0.00 | 0.00 | 58 | 1006.7 |
| 20260505034104 | 16 | 19 | 0.0 | 0.0 | 0.00 | 0.00 | 0.00 | 55 | 1006.6 |
| 20260505032104 | 16 | 352 | 1.6 | 3.2 | 0.00 | 0.00 | 0.00 | 51 | 1006.3 |
| 20260505031605 | 16 | 323 | 0.0 | 3.2 | 0.00 | 0.00 | 0.00 | 52 | 1006.3 |
| 20260505030105 | 17 | 307 | 0.0 | 1.6 | 0.00 | 0.00 | 0.00 | 50 | 1006.2 |
| 20260505024605 | 18 | 107 | 0.0 | 1.6 | 0.00 | 0.00 | 0.00 | 47 | 1006.0 |
| 20260505024104 | 19 | 4 | 0.0 | 1.6 | 0.00 | 0.00 | 0.00 | 45 | 1005.8 |
| 20260505023604 | 20 | 345 | 0.0 | 1.6 | 0.00 | 0.00 | 0.00 | 44 | 1005.8 |
| 20260505022604 | 21 | 134 | 0.0 | 1.6 | 0.00 | 0.00 | 0.00 | 42 | 1005.8 |
| 20260505022105 | 21 | 112 | 0.0 | 3.2 | 0.00 | 0.00 | 0.00 | 41 | 1005.7 |
| 20260505020104 | 22 | 84 | 1.6 | 4.8 | 0.00 | 0.00 | 0.00 | 36 | 1005.7 |
| 20260505015105 | 23 | 61 | 1.6 | 4.8 | 0.00 | 0.00 | 0.00 | 35 | 1005.6 |
| 20260505014604 | 23 | 102 | 1.6 | 4.8 | 0.00 | 0.00 | 0.00 | 35 | 1005.6 |
| 20260505013604 | 24 | 195 | 1.6 | 4.8 | 0.00 | 0.00 | 0.00 | 34 | 1005.6 |
| 20260505013105 | 24 | 107 | 1.6 | 4.8 | 0.00 | 0.00 | 0.00 | 33 | 1005.7 |
| 20260505012105 | 24 | 269 | 0.0 | 4.8 | 0.00 | 0.00 | 0.00 | 36 | 1005.7 |
| 20260505011605 | 24 | 307 | 1.6 | 8.0 | 0.00 | 0.00 | 0.00 | 32 | 1005.7 |
| 20260505005104 | 25 | 147 | 1.6 | 14.5 | 0.00 | 0.00 | 0.00 | 33 | 1005.8 |
| 20260505003604 | 25 | 259 | 1.6 | 9.7 | 0.00 | 0.00 | 0.00 | 32 | 1005.9 |
| 20260505002605 | 25 | 195 | 1.6 | 4.8 | 0.00 | 0.00 | 0.00 | 32 | 1005.9 |
| 20260505002104 | 25 | 293 | 3.2 | 8.0 | 0.00 | 0.00 | 0.00 | 32 | 1006.0 |
| 20260505000104 | 25 | 318 | 3.2 | 16.1 | 0.00 | 0.00 | 0.00 | 34 | 1005.9 |
| 20260504235604 | 25 | 315 | 3.2 | 12.9 | 0.00 | 0.00 | 0.00 | 32 | 1005.9 |
| 20260504235104 | 25 | 287 | 4.8 | 12.9 | 0.00 | 0.00 | 0.00 | 33 | 1005.9 |
| 20260504233104 | 25 | 300 | 3.2 | 11.3 | 0.00 | 0.00 | 0.00 | 33 | 1005.8 |
| 20260504232104 | 25 | 291 | 3.2 | 11.3 | 0.00 | 0.00 | 0.00 | 35 | 1005.8 |
| 20260504231105 | 24 | 267 | 3.2 | 12.9 | 0.00 | 0.00 | 0.00 | 39 | 1005.9 |
| 20260504230605 | 24 | 287 | 4.8 | 12.9 | 0.00 | 0.00 | 0.00 | 39 | 1005.8 |
| 20260504230104 | 25 | 245 | 3.2 | 9.7 | 0.00 | 0.00 | 0.00 | 39 | 1005.8 |
| 20260504224104 | 25 | 294 | 4.8 | 9.7 | 0.00 | 0.00 | 0.00 | 35 | 1005.8 |
| 20260504223604 | 25 | 301 | 1.6 | 9.7 | 0.00 | 0.00 | 0.00 | 36 | 1005.8 |
| 20260504222104 | 25 | 9 | 3.2 | 12.9 | 0.00 | 0.00 | 0.00 | 38 | 1006.0 |
| 20260504221104 | 24 | 281 | 4.8 | 19.3 | 0.00 | 0.00 | 0.00 | 35 | 1006.1 |
| 20260504215104 | 24 | 282 | 4.8 | 12.9 | 0.00 | 0.00 | 0.00 | 36 | 1006.1 |
| 20260504214104 | 24 | 299 | 3.2 | 11.3 | 0.00 | 0.00 | 0.00 | 38 | 1006.1 |
| 20260504211604 | 23 | 301 | 3.2 | 4.8 | 0.00 | 0.00 | 0.00 | 40 | 1006.3 |
| 20260504210104 | 23 | 265 | 3.2 | 8.0 | 0.00 | 0.00 | 0.00 | 37 | 1006.3 |
| 20260504205104 | 23 | 284 | 4.8 | 12.9 | 0.00 | 0.00 | 0.00 | 38 | 1006.4 |
| 20260504204604 | 23 | 257 | 3.2 | 14.5 | 0.00 | 0.00 | 0.00 | 38 | 1006.5 |
| 20260504204104 | 23 | 241 | 6.4 | 14.5 | 0.00 | 0.00 | 0.00 | 39 | 1006.5 |
| 20260504203104 | 23 | 352 | 3.2 | 11.3 | 0.00 | 0.00 | 0.00 | 35 | 1006.6 |
| 20260504202604 | 23 | 267 | 3.2 | 11.3 | 0.00 | 0.00 | 0.00 | 36 | 1006.6 |
| 20260504201604 | 23 | 315 | 8.0 | 16.1 | 0.00 | 0.00 | 0.00 | 37 | 1006.7 |
| 20260504201104 | 23 | 251 | 1.6 | 12.9 | 0.00 | 0.00 | 0.00 | 36 | 1006.7 |
| 20260504200604 | 23 | 283 | 3.2 | 12.9 | 0.00 | 0.00 | 0.00 | 37 | 1006.7 |
| 20260504200104 | 23 | 309 | 3.2 | 8.0 | 0.00 | 0.00 | 0.00 | 38 | 1006.7 |
| 20260504195605 | 23 | 287 | 3.2 | 8.0 | 0.00 | 0.00 | 0.00 | 39 | 1006.6 |
| 20260504195105 | 23 | 288 | 1.6 | 9.7 | 0.00 | 0.00 | 0.00 | 40 | 1006.7 |
| 20260504194604 | 23 | 289 | 3.2 | 9.7 | 0.00 | 0.00 | 0.00 | 40 | 1006.8 |
| 20260504194104 | 23 | 279 | 1.6 | 8.0 | 0.00 | 0.00 | 0.00 | 37 | 1006.9 |
| 20260504193605 | 23 | 268 | 3.2 | 11.3 | 0.00 | 0.00 | 0.00 | 39 | 1006.8 |
| 20260504191604 | 22 | 223 | 4.8 | 11.3 | 0.00 | 0.00 | 0.00 | 42 | 1007.1 |
| 20260504185604 | 22 | 310 | 3.2 | 4.8 | 0.00 | 0.00 | 0.00 | 44 | 1007.1 |
| 20260504185104 | 22 | 268 | 3.2 | 4.8 | 0.00 | 0.00 | 0.00 | 43 | 1007.1 |
| 20260504184605 | 22 | 237 | 1.6 | 4.8 | 0.00 | 0.00 | 0.00 | 46 | 1007.2 |
| 20260504184104 | 22 | 257 | 0.0 | 4.8 | 0.00 | 0.00 | 0.00 | 45 | 1007.2 |
| 20260504181604 | 21 | 175 | 3.2 | 8.0 | 0.00 | 0.00 | 0.00 | 45 | 1007.2 |
| 20260504180104 | 20 | 107 | 3.2 | 9.7 | 0.00 | 0.00 | 0.00 | 45 | 1007.3 |
| 20260504174104 | 20 | 76 | 0.0 | 4.8 | 0.00 | 0.00 | 0.00 | 46 | 1007.4 |
| 20260504173604 | 20 | 58 | 3.2 | 4.8 | 0.00 | 0.00 | 0.00 | 45 | 1007.4 |
| 20260504173104 | 20 | 221 | 0.0 | 11.3 | 0.00 | 0.00 | 0.00 | 46 | 1007.4 |
| 20260504172604 | 20 | 196 | 1.6 | 11.3 | 0.00 | 0.00 | 0.00 | 46 | 1007.5 |
| 20260504172104 | 20 | 127 | 1.6 | 4.8 | 0.00 | 0.00 | 0.00 | 45 | 1007.4 |
| 20260504171604 | 20 | 195 | 0.0 | 4.8 | 0.00 | 0.00 | 0.00 | 46 | 1007.5 |
| 20260504150603 | 15 | 159 | 0.0 | 3.2 | 0.00 | 0.00 | 0.00 | 62 | 1007.5 |
| 20260504141104 | 12 | 144 | 0.0 | 1.6 | 0.00 | 0.00 | 0.00 | 68 | 1007.7 |
| 20260504130604 | 6 | 144 | 0.0 | 0.0 | 0.00 | 0.00 | 0.00 | 83 | 1007.4 |
| 20260504110606 | 6 | 139 | 0.0 | 0.0 | 0.00 | 0.00 | 0.00 | 83 | 1007.4 |
| 20260504110106 | 6 | 139 | 0.0 | 0.0 | 0.00 | 0.00 | 0.00 | 83 | 1007.5 |
| 20260504100606 | 6 | 172 | 0.0 | 0.0 | 0.00 | 0.00 | 0.00 | 85 | 1007.6 |
| 20260504100105 | 5 | 172 | 0.0 | 0.0 | 0.00 | 0.00 | 0.00 | 85 | 1007.6 |